This is the latest recevied weather packets stored in our database for station/object KLEMETTI. If no packets are shown the sender has not sent any weather packets the latest 10 day(s).
| Time | Temp. | Humidity | Pressure | Rain* | Wind** | Luminosity | Snow |
|---|---|---|---|---|---|---|---|
| 1778056047 | 6.11° C | 59% | 1009.9 hPa | 0 mm | - | - | - |
| 1778054846 | 5.56° C | 59% | 1009.7 hPa | 0 mm | - | - | - |
| 1778052447 | 5° C | 61% | 1009.3 hPa | 0 mm | - | - | - |
| 1778051246 | 5.56° C | 60% | 1009.1 hPa | 0 mm | - | - | - |
| 1778048846 | 4.44° C | 62% | 1008.8 hPa | 0 mm | - | - | - |
| 1778047646 | 4.44° C | 64% | 1008.7 hPa | 0 mm | - | - | - |
| 1778046445 | 4.44° C | 65% | 1008.5 hPa | 0 mm | - | - | - |
| 1778045246 | 3.89° C | 65% | 1008.3 hPa | 0 mm | - | - | - |
| 1778044046 | 3.89° C | 66% | 1008.2 hPa | 0 mm | - | - | - |
| 1778042846 | 3.89° C | 65% | 1008 hPa | 0 mm | - | - | - |
| 1778041645 | 3.89° C | 64% | 1007.8 hPa | 0 mm | - | - | - |
| 1778040445 | 3.89° C | 64% | 1007.6 hPa | 0 mm | - | - | - |
| 1778039246 | 3.89° C | 66% | 1007.3 hPa | 0 mm | - | - | - |
| 1778038045 | 3.89° C | 65% | 1007.2 hPa | 0 mm | - | - | - |
| 1778036845 | 3.89° C | 66% | 1007.1 hPa | 0 mm | - | - | - |
| 1778035645 | 3.89° C | 65% | 1007 hPa | 0 mm | - | - | - |
| 1778034445 | 3.89° C | 64% | 1006.8 hPa | 0 mm | - | - | - |
| 1778033245 | 3.89° C | 63% | 1006.8 hPa | 0 mm | - | - | - |
| 1778032045 | 3.89° C | 64% | 1006.6 hPa | 0 mm | - | - | - |
| 1778030848 | 3.89° C | 60% | 1006.5 hPa | 0 mm | - | - | - |
| 1778027245 | 4.44° C | 61% | 1006 hPa | 0 mm | - | - | - |
| 1778020044 | 5° C | 62% | 1005.3 hPa | 0 mm | - | - | - |
| 1778018845 | 5.56° C | 57% | 1005.2 hPa | 0 mm | - | - | - |
| 1778016444 | 5.56° C | 58% | 1004.9 hPa | 0 mm | - | - | - |
| 1778015243 | 5.56° C | 55% | 1004.8 hPa | 0 mm | - | - | - |
* Rain latest hour (hover to see other rain measurements)
** Current wind speed in m/s (hover to see current wind gust speed)